{"data":{"norad_id":60016,"intl_designator":"2024-111A","name":"STARLINK-31978","alt_names":[],"object_type":"PAYLOAD","status":"ACTIVE","operator":null,"country":"US","launch_date":"2024-06-08","launch_site_code":"AFETR","launch_vehicle":null,"mission":null,"orbit_class":"UNKNOWN","rcs_meters":null,"size_class":null,"mass_kg":null,"dimensions":null,"purposes":["comms"],"wikipedia_slug":null,"has_3d_model":false,"image_url":null,"decayed_at":null,"tle_current":{"epoch":"2026-09-21T07:52:18.974496Z","epoch_age_seconds":106098,"freshness":"FRESH","line1":"1 60016U 24111A   26264.32799739 -.00000047  00000+0  10256-4 0  9990","line2":"2 60016  53.1595 245.7019 0001304  88.9937 271.1213 15.31699322128901","mean_motion":15.31699322,"eccentricity":0.0001304,"inclination_deg":53.1595,"raan_deg":245.7019,"arg_perigee_deg":88.9937,"mean_anomaly_deg":271.1213,"bstar":1.0256e-5,"rev_number":12890,"period_min":94.013229575615,"perigee_km":469.84892248539,"apogee_km":471.63511013284,"semimajor_km":6848.8790163091,"source":"CELESTRAK","updated_at":"2026-09-22T09:00:49.137132Z"}}}